TimeMDT,TemperatureF,Dew PointF,Humidity,Sea Level PressureIn,VisibilityMPH,Wind Direction,Wind SpeedMPH,Gust SpeedMPH,PrecipitationIn,Events,Conditions,WindDirDegrees,DateUTC
12:53 AM,45.0,21.0,39,30.03,10.0,Calm,Calm,-,N/A,,Clear,0,2012-10-10 06:53:00
1:53 AM,37.9,19.0,47,30.07,10.0,NE,3.5,-,N/A,,Clear,50,2012-10-10 07:53:00
2:53 AM,39.9,21.0,47,30.05,10.0,NNE,3.5,-,N/A,,Clear,20,2012-10-10 08:53:00
3:53 AM,34.0,18.0,52,30.07,10.0,ENE,4.6,-,N/A,,Clear,70,2012-10-10 09:53:00
4:53 AM,39.0,21.0,49,30.07,10.0,NNE,4.6,-,N/A,,Clear,20,2012-10-10 10:53:00
5:53 AM,33.1,19.9,59,30.12,10.0,NNE,4.6,-,N/A,,Clear,30,2012-10-10 11:53:00
7:53 AM,36.0,19.9,52,30.17,10.0,Calm,Calm,-,N/A,,Clear,0,2012-10-10 13:53:00
8:53 AM,45.0,23.0,42,30.14,10.0,Calm,Calm,-,N/A,,Clear,0,2012-10-10 14:53:00
9:53 AM,53.1,24.1,32,30.12,10.0,Calm,Calm,-,N/A,,Clear,0,2012-10-10 15:53:00
10:53 AM,62.1,23.0,22,30.11,10.0,East,5.8,-,N/A,,Clear,90,2012-10-10 16:53:00
11:53 AM,66.9,24.1,20,30.07,10.0,Variable,6.9,-,N/A,,Clear,0,2012-10-10 17:53:00
12:53 PM,69.1,28.0,22,30.04,10.0,West,6.9,-,N/A,,Clear,270,2012-10-10 18:53:00
1:53 PM,71.1,26.1,19,30.02,10.0,WSW,12.7,18.4,N/A,,Clear,240,2012-10-10 19:53:00
2:53 PM,73.0,26.1,17,29.98,10.0,SW,16.1,21.9,N/A,,Clear,220,2012-10-10 20:53:00
3:53 PM,72.0,25.0,17,30.00,10.0,SSW,10.4,-,N/A,,Clear,210,2012-10-10 21:53:00
4:53 PM,70.0,24.1,18,29.97,10.0,WSW,6.9,-,N/A,,Clear,240,2012-10-10 22:53:00
5:53 PM,70.0,23.0,17,29.99,10.0,West,4.6,-,N/A,,Clear,260,2012-10-10 23:53:00
6:53 PM,64.9,21.9,19,30.03,10.0,WSW,3.5,-,N/A,,Clear,250,2012-10-11 00:53:00
7:53 PM,57.9,24.1,27,30.06,10.0,NNE,4.6,-,N/A,,Clear,20,2012-10-11 01:53:00
8:53 PM,52.0,21.0,30,30.03,10.0,NE,6.9,-,N/A,,Clear,50,2012-10-11 02:53:00
9:53 PM,48.9,21.9,35,30.03,10.0,North,4.6,-,N/A,,Clear,10,2012-10-11 03:53:00
10:53 PM,48.0,23.0,37,30.01,10.0,North,4.6,-,N/A,,Clear,350,2012-10-11 04:53:00
11:53 PM,45.0,23.0,42,30.00,10.0,North,4.6,-,N/A,,Clear,360,2012-10-11 05:53:00